Torna al catalogo

ORBCOMM FM 41

AttivoComunicazioniLEO
NORAD 33061·PAYLOAD·🇺🇸 United States

Lanciato Jun 19, 2008 da Kapustin Yar

Loading…

Prossimi Passaggi (prossime 24 ore)

TLE

AggiornatoSource: Space-Track

Epoca: Sep 14, 2026, 04:23 UTC

1 33061U 08031B   26257.18303413  .00000861  00000-0  13196-3 0  9998
2 33061  48.4445 317.3859 0003974 193.1080 196.2972 14.82826366981577

Traccia ORBCOMM FM 41 in tempo reale con AllMySat

Download on the App Store